• In Hungary
  • List of Countries
  • For 7 days
  • Water Temperature
  • Satellite Maps
  • Weather Map
  • News
  • Weather Widgets
  • user-avatar
    Login

    Hourly Weather Viktorovka

    Today, 23 October, Tuesday

    Time Temperature Precipitation Wind Pressure Humidity
    00:00 +11°C° 0 mm 4 mps 749 mmHg 70%
    01:00 +11°C° 0 mm 4 mps 748 mmHg 72%
    02:00 +11°C° 0 mm 4 mps 747 mmHg 72%
    03:00 +11°C° 0 mm 4 mps 747 mmHg 73%
    04:00 +10°C° 0.2 mm 4 mps 746 mmHg 76%
    05:00 +10°C° 0.2 mm 4 mps 746 mmHg 80%
    06:00 +10°C° 0.2 mm 4 mps 745 mmHg 83%
    07:00 +9°C° 0.2 mm 5 mps 744 mmHg 83%
    08:00 +9°C° 0.2 mm 5 mps 744 mmHg 84%
    09:00 +9°C° 0.2 mm 6 mps 743 mmHg 84%
    10:00 +10°C° 0.2 mm 6 mps 743 mmHg 83%
    11:00 +10°C° 0.2 mm 6 mps 743 mmHg 83%
    12:00 +10°C° 0.2 mm 6 mps 742 mmHg 82%
    13:00 +10°C° 0.3 mm 5 mps 742 mmHg 80%
    14:00 +10°C° 0.3 mm 5 mps 741 mmHg 78%
    15:00 +10°C° 0.3 mm 4 mps 741 mmHg 76%
    16:00 +8°C° 0 mm 4 mps 741 mmHg 77%
    17:00 +9°C° 0 mm 3 mps 741 mmHg 77%
    18:00 +8°C° 0 mm 2 mps 740 mmHg 78%
    19:00 +7°C° 0 mm 3 mps 740 mmHg 78%
    20:00 +7°C° 0 mm 3 mps 740 mmHg 79%
    21:00 +7°C° 0 mm 3 mps 740 mmHg 79%
    22:00 +5°C° 0 mm 3 mps 739 mmHg 79%
    23:00 +5°C° 0 mm 3 mps 739 mmHg 79%

    Tomorrow, 24 October, Wednesday

    Time Temperature Precipitation Wind Pressure Humidity
    00:00 +5°C° 0 mm 3 mps 738 mmHg 79%
    01:00 +5°C° 0 mm 4 mps 738 mmHg 79%
    02:00 +4°C° 0 mm 4 mps 737 mmHg 79%
    03:00 +4°C° 0 mm 4 mps 737 mmHg 78%
    04:00 +3°C° 0 mm 5 mps 736 mmHg 78%
    05:00 +3°C° 0 mm 5 mps 736 mmHg 78%
    06:00 +3°C° 0 mm 5 mps 735 mmHg 78%
    07:00 +4°C° 0 mm 6 mps 735 mmHg 75%
    08:00 +4°C° 0 mm 6 mps 734 mmHg 72%
    09:00 +5°C° 0 mm 7 mps 734 mmHg 68%
    10:00 +6°C° 0.4 mm 7 mps 733 mmHg 69%
    11:00 +6°C° 0.4 mm 8 mps 733 mmHg 70%
    12:00 +7°C° 0.4 mm 8 mps 732 mmHg 70%
    13:00 +7°C° 0.2 mm 8 mps 732 mmHg 71%
    14:00 +7°C° 0.2 mm 8 mps 731 mmHg 72%
    15:00 +9°C° 0.2 mm 8 mps 731 mmHg 73%
    16:00 +9°C° 0.3 mm 7 mps 731 mmHg 78%
    17:00 +8°C° 0.3 mm 6 mps 730 mmHg 83%
    18:00 +8°C° 0.3 mm 5 mps 730 mmHg 88%
    19:00 +8°C° 0.4 mm 5 mps 730 mmHg 88%
    20:00 +8°C° 0.4 mm 5 mps 729 mmHg 88%
    21:00 +9°C° 0.4 mm 5 mps 729 mmHg 89%
    22:00 +8°C° 0.1 mm 5 mps 729 mmHg 89%
    23:00 +8°C° 0.1 mm 5 mps 728 mmHg 89%

    Day after tomorrow, 25 October, Thursday

    Time Temperature Precipitation Wind Pressure Humidity
    00:00 +8°C° 0.1 mm 5 mps 728 mmHg 90%
    01:00 +9°C° 0.3 mm 6 mps 727 mmHg 88%
    02:00 +9°C° 0.3 mm 7 mps 727 mmHg 87%
    03:00 +10°C° 0.3 mm 8 mps 726 mmHg 86%
    04:00 +10°C° 0.3 mm 8 mps 726 mmHg 85%
    05:00 +10°C° 0.3 mm 8 mps 725 mmHg 84%
    06:00 +10°C° 0.3 mm 8 mps 725 mmHg 84%
    07:00 +10°C° 0.3 mm 8 mps 725 mmHg 82%
    08:00 +10°C° 0.3 mm 8 mps 725 mmHg 81%
    09:00 +9°C° 0.3 mm 8 mps 725 mmHg 80%
    10:00 +8°C° 0.3 mm 9 mps 725 mmHg 72%
    11:00 +8°C° 0.3 mm 9 mps 725 mmHg 65%
    12:00 +7°C° 0.3 mm 10 mps 725 mmHg 57%
    13:00 +7°C° 0 mm 10 mps 726 mmHg 58%
    14:00 +7°C° 0 mm 10 mps 726 mmHg 59%
    15:00 +6°C° 0 mm 10 mps 727 mmHg 60%
    16:00 +6°C° 0 mm 9 mps 727 mmHg 62%
    17:00 +6°C° 0 mm 8 mps 728 mmHg 65%
    18:00 +5°C° 0 mm 8 mps 728 mmHg 67%
    19:00 +5°C° 0 mm 7 mps 729 mmHg 70%
    20:00 +4°C° 0 mm 7 mps 729 mmHg 72%
    21:00 +4°C° 0 mm 6 mps 730 mmHg 75%
    22:00 +4°C° 0 mm 6 mps 730 mmHg 77%
    23:00 +3°C° 0 mm 5 mps 731 mmHg 79%

    26 October, Friday

    Time Temperature Precipitation Wind Pressure Humidity
    00:00 +3°C° 0 mm 5 mps 731 mmHg 82%
    01:00 +3°C° 0.1 mm 5 mps 731 mmHg 83%
    02:00 +3°C° 0.1 mm 5 mps 732 mmHg 83%
    03:00 +3°C° 0.1 mm 5 mps 732 mmHg 84%
    04:00 +3°C° 0.1 mm 5 mps 733 mmHg 84%
    05:00 +3°C° 0.1 mm 4 mps 733 mmHg 84%
    06:00 +3°C° 0.1 mm 4 mps 733 mmHg 84%
    07:00 +2°C° 0 mm 5 mps 734 mmHg 80%
    08:00 +2°C° 0 mm 5 mps 735 mmHg 77%
    09:00 +2°C° 0 mm 5 mps 735 mmHg 73%
    10:00 +3°C° 0 mm 6 mps 736 mmHg 67%
    11:00 +4°C° 0 mm 6 mps 736 mmHg 61%
    12:00 +4°C° 0 mm 6 mps 736 mmHg 54%
    13:00 +4°C° 0 mm 6 mps 737 mmHg 54%
    14:00 +4°C° 0 mm 6 mps 737 mmHg 53%
    15:00 +4°C° 0 mm 6 mps 738 mmHg 53%
    16:00 +3°C° 0 mm 5 mps 738 mmHg 57%
    17:00 +4°C° 0 mm 4 mps 739 mmHg 61%
    18:00 +3°C° 0 mm 3 mps 740 mmHg 66%
    19:00 +3°C° 0 mm 3 mps 740 mmHg 68%
    20:00 +2°C° 0 mm 3 mps 740 mmHg 71%
    21:00 +2°C° 0 mm 3 mps 741 mmHg 74%
    22:00 +2°C° 0 mm 3 mps 741 mmHg 75%
    23:00 +1°C° 0 mm 4 mps 742 mmHg 75%

    27 October, Saturday

    Time Temperature Precipitation Wind Pressure Humidity
    00:00 0°C° 0 mm 4 mps 742 mmHg 75%
    01:00 0°C° 0 mm 4 mps 743 mmHg 76%
    02:00 +1°C° 0 mm 4 mps 743 mmHg 77%
    03:00 +1°C° 0 mm 5 mps 743 mmHg 78%
    04:00 0°C° 0 mm 4 mps 744 mmHg 81%
    05:00 0°C° 0 mm 4 mps 744 mmHg 85%
    06:00 0°C° 0 mm 4 mps 745 mmHg 88%
    07:00 0°C° 0 mm 4 mps 745 mmHg 85%
    08:00 +1°C° 0 mm 5 mps 746 mmHg 82%
    09:00 +1°C° 0 mm 5 mps 747 mmHg 80%
    10:00 +3°C° 0 mm 5 mps 747 mmHg 73%
    11:00 +5°C° 0 mm 5 mps 747 mmHg 66%
    12:00 +6°C° 0 mm 5 mps 748 mmHg 59%
    13:00 +6°C° 0 mm 5 mps 748 mmHg 59%
    14:00 +6°C° 0 mm 5 mps 748 mmHg 59%
    15:00 +7°C° 0 mm 5 mps 748 mmHg 58%
    16:00 +6°C° 0 mm 4 mps 748 mmHg 63%
    17:00 +6°C° 0 mm 4 mps 749 mmHg 67%
    18:00 +5°C° 0 mm 3 mps 749 mmHg 71%
    19:00 +5°C° 0 mm 3 mps 749 mmHg 72%
    20:00 +5°C° 0 mm 3 mps 749 mmHg 72%
    21:00 +5°C° 0 mm 3 mps 749 mmHg 73%
    22:00 +5°C° 0 mm 4 mps 749 mmHg 73%
    23:00 +5°C° 0 mm 4 mps 749 mmHg 73%

    28 October, Sunday

    Time Temperature Precipitation Wind Pressure Humidity
    00:00 +5°C° 0 mm 5 mps 749 mmHg 74%
    01:00 +5°C° 0 mm 5 mps 749 mmHg 73%
    02:00 +6°C° 0 mm 5 mps 749 mmHg 73%
    03:00 +6°C° 0 mm 5 mps 749 mmHg 73%
    04:00 +5°C° 0 mm 6 mps 749 mmHg 74%
    05:00 +5°C° 0 mm 6 mps 748 mmHg 76%
    06:00 +5°C° 0 mm 6 mps 748 mmHg 78%
    07:00 +6°C° 0.4 mm 7 mps 748 mmHg 80%
    08:00 +6°C° 0.4 mm 7 mps 748 mmHg 82%
    09:00 +8°C° 0.4 mm 7 mps 749 mmHg 84%
    10:00 +9°C° 0 mm 8 mps 749 mmHg 78%
    11:00 +10°C° 0 mm 8 mps 749 mmHg 73%
    12:00 +12°C° 0 mm 9 mps 749 mmHg 67%
    13:00 +12°C° 0 mm 8 mps 748 mmHg 66%
    14:00 +13°C° 0 mm 8 mps 748 mmHg 65%
    15:00 +13°C° 0 mm 8 mps 748 mmHg 64%
    16:00 +12°C° 0 mm 8 mps 748 mmHg 66%
    17:00 +12°C° 0 mm 8 mps 748 mmHg 69%
    18:00 +11°C° 0 mm 7 mps 748 mmHg 71%
    19:00 +11°C° 0 mm 8 mps 748 mmHg 70%
    20:00 +11°C° 0 mm 8 mps 748 mmHg 69%
    21:00 +11°C° 0 mm 8 mps 748 mmHg 69%
    22:00 +11°C° 0 mm 8 mps 748 mmHg 68%
    23:00 +11°C° 0 mm 8 mps 748 mmHg 67%

    29 October, Monday

    Time Temperature Precipitation Wind Pressure Humidity
    00:00 +11°C° 0 mm 8 mps 748 mmHg 66%
    01:00 +10°C° 0 mm 8 mps 748 mmHg 65%
    02:00 +10°C° 0 mm 7 mps 748 mmHg 65%
    03:00 +10°C° 0 mm 7 mps 748 mmHg 64%
    04:00 +10°C° 0 mm 7 mps 748 mmHg 65%
    05:00 +10°C° 0 mm 7 mps 748 mmHg 66%
    06:00 +10°C° 0 mm 7 mps 748 mmHg 66%
    07:00 +10°C° 0 mm 7 mps 748 mmHg 66%
    08:00 +10°C° 0 mm 7 mps 749 mmHg 67%
    09:00 +11°C° 0 mm 7 mps 749 mmHg 67%
    10:00 +12°C° 0 mm 7 mps 749 mmHg 66%
    11:00 +14°C° 0 mm 6 mps 750 mmHg 66%
    12:00 +15°C° 0 mm 6 mps 750 mmHg 65%
    13:00 +15°C° 0 mm 6 mps 750 mmHg 66%
    14:00 +15°C° 0 mm 5 mps 750 mmHg 68%
    15:00 +15°C° 0 mm 4 mps 751 mmHg 69%
    16:00 +15°C° 0 mm 4 mps 751 mmHg 73%
    17:00 +14°C° 0 mm 3 mps 751 mmHg 76%
    18:00 +14°C° 0 mm 2 mps 752 mmHg 79%
    19:00 +14°C° 0 mm 2 mps 752 mmHg 80%
    20:00 +13°C° 0 mm 2 mps 752 mmHg 80%
    21:00 +13°C° 0 mm 2 mps 752 mmHg 80%
    22:00 +13°C° 0 mm 2 mps 753 mmHg 79%
    23:00 +12°C° 0 mm 2 mps 753 mmHg 79%
    Show more